Simultaneous Nadir Overpasses (SNOs) Predictions

Prediction of SNOs between FY3D and LANDSAT-8 Satellite Orbit:

Table of predicted SNOs for the next 14.0 days since TLE Epoch: 8/6/2022
Index Date (FY3D) Time (FY3D) Lat,Lon (FY3D) SZA (FY3D ) Date (LANDSAT-8) Time (LANDSAT-8) Lat,Lon (LANDSAT-8) SZA (LANDSAT-8 ) Distance(km) Time Diff (sec)
1 08/06/2022 21:59:20 72.39,-151.08 55.82 08/06/2022 22:00:31 72.28,-150.22 55.69 31.35 71
2 08/06/2022 22:49:57 -72.03, 16.95 124.55 08/06/2022 22:50:03 -72.06, 17.01 124.53 3.33 6
3 08/06/2022 23:40:42 71.92,-175.53 55.35 08/06/2022 23:39:31 71.92,-175.60 55.35 2.54 71
4 08/09/2022 13:26:23 -72.49, 156.99 123.33 08/09/2022 13:27:33 -72.39, 158.20 123.46 42.47 70
5 08/09/2022 14:17:01 72.03, -34.79 56.20 08/09/2022 14:17:05 72.03, -34.80 56.20 0.25 4
6 08/09/2022 15:07:44 -71.97, 132.64 123.85 08/09/2022 15:06:34 -71.97, 132.73 123.86 2.95 70
7 08/12/2022 04:53:26 72.40, 105.43 57.35 08/12/2022 04:54:37 72.30, 106.28 57.23 30.97 71
8 08/12/2022 05:44:03 -72.03, -86.52 123.03 08/12/2022 05:44:10 -72.03, -86.57 123.03 1.92 7
9 08/12/2022 06:34:48 71.93, 80.98 56.88 08/12/2022 06:33:37 71.93, 80.90 56.89 2.71 71
10 08/14/2022 20:20:30 -72.49, 53.51 121.75 08/14/2022 20:21:40 -72.40, 54.69 121.87 40.98 70
11 08/14/2022 21:11:08 72.04,-138.29 57.80 08/14/2022 21:11:12 72.03,-138.32 57.79 1.62 4
12 08/14/2022 22:01:51 -71.97, 29.17 122.27 08/14/2022 22:00:41 -71.98, 29.22 122.26 1.86 70
13 08/17/2022 11:47:33 72.42, 1.92 59.01 08/17/2022 11:48:44 72.29, 2.74 58.86 31.11 71
14 08/17/2022 12:38:11 -72.08, 169.91 121.34 08/17/2022 12:38:16 -72.07, 169.99 121.34 2.90 5
15 08/17/2022 13:28:55 71.94, -22.52 58.54 08/17/2022 13:27:43 71.97, -22.55 58.57 3.36 72
16 08/20/2022 03:14:36 -72.50, -49.97 120.06 08/20/2022 03:15:46 -72.38, -48.86 120.20 39.43 70
17 08/20/2022 04:05:14 72.06, 118.20 59.51 08/20/2022 04:05:17 72.06, 118.21 59.50 0.56 3



Historial Predications of SNOs between FY3D and LANDSAT-8
